Lid_Strength_Index
19 17 16 15 15 15 16 17 20 22 21 21 19 17 18 14 16 18 16 17 17 15 15 15 15 14 14 14 13 12 11 10 10 10 9 10 10 10 10 11 10 10 10 11
24 18 14 15 14 14 15 16 16 17 17 16 15 15 14 16 19 18 18 18 18 16 15 15 15 15 14 14 13 12 12 12 11 11 11 11 10 12 11 12 12 12 12 12
28 23 24 21 18 15 15 17 17 20 17 16 16 15 15 16 16 17 16 15 17 17 17 18 16 15 15 15 13 13 12 12 12 12 13 13 12 12 13 13 13 14 14 14
24 24 27 17 15 14 16 17 15 16 16 14 14 14 14 14 14 14 14 15 15 16 16 17 17 16 15 15 14 13 13 13 13 13 13 13 14 14 15 14 14 15 15 14
23 22 20 18 15 15 15 15 13 14 14 14 14 13 13 12 13 13 14 15 15 16 16 16 17 16 15 16 15 15 14 14 14 14 14 14 15 15 15 15 16 16 15 16
28 25 29 18 13 13 14 17 13 12 13 14 14 17 16 14 13 14 14 14 14 15 15 16 16 15 15 15 16 16 15 15 15 15 15 15 15 16 16 16 16 15 15 15
23 23 23 17 14 13 19 15 13 12 13 14 14 14 15 14 14 13 14 14 15 16 16 18 17 15 15 16 16 16 16 15 15 15 14 14 14 14 14 14 15 15 15 15
24 25 26 15 14 15 13 12 12 12 13 12 13 14 14 14 14 14 14 14 14 15 16 18 17 16 16 17 18 17 16 16 15 15 14 14 15 15 15 15 16 16 16 16
21 21 16 13 13 12 12 12 12 12 12 11 12 13 13 14 14 13 14 15 15 18 19 20 21 20 19 20 20 19 17 14 14 15 15 14 15 14 15 15 15 16 16 16
21 18 16 15 12 13 13 12 12 12 12 12 12 13 13 14 14 14 16 17 19 19 20 22 23 21 23 22 22 22 16 15 14 15 17 17 15 15 15 15 16 16 16 16
21 18 19 16 15 13 12 12 12 12 12 11 12 13 13 13 14 15 17 19 19 16 18 20 24 25 27 25 25 17 15 15 14 14 15 19 18 17 15 14 14 16 16 16
18 16 16 16 16 15 14 12 12 13 13 13 13 13 14 15 15 16 17 21 19 19 17 20 24 25 27 29 25 17 16 16 15 15 16 18 20 20 15 14 14 14 14 14
15 18 17 18 19 18 14 13 12 13 13 14 16 15 17 17 19 18 21 21 20 18 17 22 24 25 27 28 19 17 16 16 16 16 16 20 24 25 26 22 16 16 15 15
17 18 18 20 16 18 17 18 17 17 17 15 14 20 19 18 24 19 19 18 20 23 22 23 25 24 27 29 20 17 17 16 16 16 16 17 25 28 30 29 29 27 22 18
16 16 14 20 22 21 25 24 20 16 15 19 21 15 18 19 19 18 19 25 26 26 26 27 26 23 28 29 19 17 18 17 15 16 16 16 17 29 31 31 32 33 31 23
18 18 18 18 16 21 22 24 18 16 17 15 18 19 17 16 17 20 24 25 23 21 21 24 24 27 28 28 19 17 17 17 16 20 17 17 19 29 30 32 33 34 33 28
21 20 25 23 18 16 19 17 16 15 16 17 15 16 20 21 28 27 25 25 23 28 26 24 23 27 27 27 18 17 17 17 17 20 28 25 29 29 31 33 32 34 33 32
15 14 17 17 18 17 18 18 17 16 17 15 16 19 19 21 18 19 22 27 32 31 29 27 27 27 28 27 21 17 16 17 18 18 23 31 31 31 31 32 33 32 32 34
16 16 17 19 19 19 18 17 17 16 16 18 20 19 18 18 17 19 26 26 26 25 21 25 24 27 27 28 26 19 17 17 20 21 21 30 32 33 33 33 32 33 34 33
19 17 19 18 21 19 18 19 18 17 17 18 18 18 19 19 20 24 25 23 21 21 25 24 24 26 26 26 23 24 22 22 24 26 28 28 27 28 30 31 32 32 34 33
23 22 20 19 19 20 19 20 20 19 19 17 18 17 17 17 22 23 26 24 21 26 28 26 24 24 24 25 24 25 25 25 25 24 26 25 26 27 28 29 29 29 29 32
26 26 24 23 22 21 23 23 20 19 21 19 18 18 18 21 23 24 22 21 28 25 26 27 25 24 23 24 24 25 25 24 24 25 26 26 26 25 25 27 27 27 28 28
25 27 27 27 26 24 28 26 24 23 22 21 20 19 18 18 21 22 22 21 29 27 25 25 25 25 24 24 25 25 25 25 24 25 25 25 24 24 24 24 25 27 27 27
29 27 28 30 31 29 25 26 28 29 27 26 24 23 22 25 29 29 30 26 23 24 25 25 24 23 24 24 25 25 25 25 25 25 26 25 26 26 26 25 26 26 27 27
26 27 29 28 28 26 28 30 31 32 32 32 32 31 30 30 23 24 29 28 25 26 27 24 23 23 25 25 26 26 26 25 25 26 27 26 26 26 26 26 26 26 26 26
27 26 27 27 26 27 27 29 27 29 30 32 33 33 32 31 29 28 28 28 27 27 28 25 24 24 25 25 26 26 26 26 27 27 27 27 26 26 26 26 26 26 26 26
29 27 29 27 28 27 27 26 25 26 27 27 28 30 29 28 28 29 29 29 29 28 27 27 25 25 26 26 27 26 26 27 27 27 26 26 26 26 26 26 26 26 26 26